Погода в Знаменском

Россия / Чеченская Республика     43°40′39″N   45°07′30″E
темп.,
°C
ветер,
м/с
пор.,
м/с
влажн.,
%
обл.,
%
осадки,
мм/ч
давл.,
гПа
погр.,
м
15 апреля, чт
чт1500:00+10з3777100 0.0 1017193
03:00+9з4881100 0.0 1017218
06:00+9з510839 0.0 1018265
09:00+15зсз68570 0.0 1018762
12:00+20зсз56370 0.0 10161441
15:00+21сз5530100 0.0 10161712
18:00+18ссз344397 0.0 101788
21:00+15ссз22507 0.0 101816
16 апреля, пт
пт1600:00+13сз1157100 0.0 101810
03:00+12сз116477 0.0 101810
06:00+12зюз006853 0.0 101910
09:00+17в22498 0.0 1019562
12:00+21всв44345 0.0 10181475
15:00+23в55305 0.0 10171965
18:00+20вюв47410 0.0 1016206
21:00+15вюв4953100 0.0 1018208
17 апреля, сб
сб1700:00+14юв1154100 0.1 101910
03:00+12вюв115773 0.1 101811
06:00+12св116183 0.0 101714
09:00+17сз554563 0.0 1019713
12:00+19ссз5548100 0.0 10201364
15:00+19ссз655097 0.0 10201637
18:00+15ссз5663100 0.0 1022771
21:00+14зсз3466100 0.0 1023828
18 апреля, вс
вс1800:00+12ссв1176100 0.0 1022331
03:00+12всв2281100 0.0 1022240
06:00+12вюв2480100 0.0 1021344
09:00+14вюв4676100 0.0 1019665
12:00+18в565689 0.0 10171373
15:00+20в5651100 0.0 10151376
18:00+18в4657100 0.2 1016269
21:00+14юв3771100 0.7 1018298
19 апреля, пн
пн1900:00+12юв3484100 0.4 101790
03:00+11юв2384100 0.4 101744
06:00+11в2383100 0.0 101769
09:00+18в4458100 0.0 1016471
12:00+23в55448 0.0 1014885
15:00+25в56397 0.0 10131424
18:00+20в6951100 0.0 1013426
21:00+15вюв496084 0.0 1013302